LEMUR-2-DEANANDMAEVE

导读

LEMUR-2-DEANANDMAEVE是美国Spire Global公司研制的Lemur-2系列立方星,于2025年11月28日发射入轨。作为低地球多用途接收器卫星,它延续了该系列模块化设计,可同时执行船舶自动识别系统(AIS)数据接收、全球无线电导航卫星系统(RNSS)反射测量、GPS干扰监测等多任务,能为海上交通监控、气象海洋研究、电磁环境感知提供多源数据,依托低轨道星座组网实现全球覆盖,支撑商业与政府领域的多维度天基感知服务。

Basic Information
目录编号:
66678
目录名称:
OTTER SDM
国际标识:
2025-276N
轨道中心:
EARTH
卫星名称:
LEMUR-2-DEANANDMAEVE
卫星全名:
LEMUR-2-DEANANDMAEVE
卫星状态:
在轨 (已飞行281 天)
发射日期:
2025-11-28 UTC
国别 :
美国 (US)
星等 :
--
Orbit Information
数据来源 国际轨道数据
星历时间: 2026-09-05T11:48:45+0800
12小时前
查看轨道信息
半长轴: 6882.17km
偏心率: 0.0007222
轨道倾角: 97.415°
近地点辐角 83.228°
升交点赤经 320.328°
平近点角 276.978°
近地点: 499.062km
远地点: 509.004km
周期: 94.700分钟
每日圈数: 15.20599
Detailed Information
使用方式:
暂无
2D Orbit Map
3D Orbit Map
Orbit Altitude Analysis Chart
Orbit Inclination Analysis Chart
Orbit Comprehensive Analysis Chart
View Comprehensive Chart
Conjunction Data List
Event ID Objects TCA Miss Dist (km) Collision Risk Probability Collision Risk Index (CRI) Action
CDM_260831-142706-124006-667824
OBJECT C (61240)
2026-08-31T
14:27:44+0000
0.808 km
远距离
3.647634E-5 中风险 0.66
CDM_260905-213606-667806-739724
CARBSAR (67397)
2026-09-05T
21:36:12+0000
1.127 km
极远距离
1.270537E-5 中风险 0.57
CDM_260905-222306-667806-739724
CARBSAR (67397)
2026-09-05T
22:23:36+0000
1.323 km
极远距离
7.280871E-6 低风险 0.52
CDM_260831-024806-629406-667825
SEMI-1L (66294)
2026-08-31T
02:48:13+0000
2.455 km
极远距离
1.688924E-6 低风险 0.4